Weather History for Gullfax (Platform), Norway

Change the Weather History Date:

Thursday, December 13, 2012

  Actual Average Record
Temperature  
Mean Temperature 36 °F -  
Max Temperature 39 °F 44 °F 48 °F (1998)
Min Temperature 33 °F 39 °F 32 °F (1999)
Degree Days  
Heating Degree Days 29    
Moisture  
Dew Point 31 °F    
Average Humidity 81    
Maximum Humidity 100    
Minimum Humidity 60    
Precipitation  
Precipitation 0.00 in - - ()
Sea Level Pressure  
Sea Level Pressure 29.74 in    
Wind  
Wind Speed 16 mph ()    
Max Wind Speed 45 mph    
Max Gust Speed 31 mph    
Visibility 5.9 miles    
Events Rain , Snow    
Averages and records for this station are not official NWS values.
T = Trace of Precipitation, MM = Missing Value Source: Averaged Metar Reports

Daily Weather History Graph

Daily Weather History Graph

Search for Another Location

Airport:

Trip Planner

Search our weather history database for the weather conditions in past years. The results will help you decide how hot, cold, wet, or windy it might be!

Date:

Astronomy

Dec. 13, 2012 Rise Set
Actual Time 9:57 AM CET 3:34 PM CET
Civil Twilight 8:56 AM CET 4:35 PM CET
Nautical Twilight 7:57 AM CET 5:34 PM CET
Astronomical Twilight 7:04 AM CET 6:28 PM CET
Moon 9:43 AM CET (12/13) 4:07 PM CET (12/13)
Length of Visible Light 7h 39m
Length of Day
5h 37m
New Moon, 0% of the Moon is Illuminated
Dec 13
New Moon
Dec 20
First Quarter
Dec 28
Full
Jan 5
Last Quarter
Jan 11
New

Hourly Weather History & Observations

Time (CET) Temp. Windchill Dew Point Humidity Pressure Visibility Wind Dir Wind Speed Gust Speed Precip Events Conditions
12:50 AM 37.4 °F 29.3 °F 24.8 °F 60% 29.83 in 6.2 mi East 12.7 mph - N/A   Partly Cloudy
1:50 AM 37.4 °F 29.8 °F 26.6 °F 65% 29.83 in 6.2 mi East 11.5 mph - N/A   Partly Cloudy
2:50 AM 39.2 °F 31.6 °F 26.6 °F 61% 29.80 in 6.2 mi East 12.7 mph - N/A   Partly Cloudy
3:50 AM 37.4 °F 29.3 °F 24.8 °F 60% 29.80 in 6.2 mi ESE 12.7 mph - N/A   Scattered Clouds
4:50 AM 39.2 °F 33.0 °F 26.6 °F 61% 29.80 in 6.2 mi East 9.2 mph - N/A   Scattered Clouds
5:20 AM 37.4 °F 30.8 °F 28.4 °F 70% 29.80 in 6.2 mi ESE 9.2 mph - N/A   Scattered Clouds
5:50 AM 37.4 °F 30.3 °F 26.6 °F 65% 29.77 in 6.2 mi ESE 10.4 mph - N/A   Scattered Clouds
6:20 AM 37.4 °F 29.8 °F 26.6 °F 65% 29.77 in 6.2 mi ESE 11.5 mph - N/A   Scattered Clouds
6:50 AM 37.4 °F 28.5 °F 28.4 °F 70% 29.77 in 6.2 mi ESE 15.0 mph - N/A   Scattered Clouds
7:20 AM 37.4 °F 30.3 °F 28.4 °F 70% 29.77 in 6.2 mi ESE 10.4 mph - N/A   Scattered Clouds
7:50 AM 37.4 °F 29.3 °F 28.4 °F 70% 29.77 in 6.2 mi SE 12.7 mph - N/A   Scattered Clouds
8:20 AM 37.4 °F 28.9 °F 26.6 °F 65% 29.77 in 6.2 mi SE 13.8 mph - N/A   Scattered Clouds
8:50 AM 37.4 °F 28.5 °F 26.6 °F 65% 29.77 in 6.2 mi ESE 15.0 mph - N/A   Scattered Clouds
9:20 AM 37.4 °F 27.8 °F 28.4 °F 70% 29.77 in 6.2 mi ESE 17.3 mph - N/A   Scattered Clouds
9:50 AM 37.4 °F 28.5 °F 26.6 °F 65% 29.77 in 6.2 mi ESE 15.0 mph - N/A   Scattered Clouds
10:20 AM 37.4 °F 26.6 °F 32.0 °F 81% 29.77 in 6.2 mi ESE 21.9 mph - N/A   Scattered Clouds
10:50 AM 37.4 °F 26.1 °F 32.0 °F 81% 29.77 in 6.2 mi ESE 24.2 mph - N/A   Scattered Clouds
11:20 AM 35.6 °F 23.4 °F 32.0 °F 87% 29.77 in 6.2 mi ESE 25.3 mph - N/A Rain Light Rain Showers
11:50 AM 33.8 °F 22.5 °F 32.0 °F 93% 29.77 in 1.2 mi East 19.6 mph - N/A Snow Snow Showers
12:20 PM 35.6 °F 25.5 °F 33.8 °F 93% 29.74 in 6.2 mi East 17.3 mph - N/A Rain Light Rain Showers
12:50 PM 35.6 °F 23.0 °F 33.8 °F 93% 29.74 in 5.6 mi ESE 27.6 mph - N/A Rain , Snow Light Rain Showers
1:20 PM 35.6 °F 25.9 °F 33.8 °F 93% 29.71 in 6.2 mi ESE 16.1 mph - N/A Rain Light Rain Showers
1:49 PM 35.6 °F 27.5 °F 33.8 °F 93% 29.71 in 6.2 mi SSE 11.5 mph - N/A Rain Light Rain Showers
2:20 PM 37.4 °F 27.8 °F 33.8 °F 87% 29.71 in 6.2 mi South 17.3 mph - N/A Rain Light Rain Showers
2:50 PM 37.4 °F 25.6 °F 33.8 °F 87% 29.71 in 6.2 mi SSE 26.5 mph - N/A   Scattered Clouds
3:20 PM 35.6 °F 25.2 °F 33.8 °F 93% 29.71 in 6.2 mi South 18.4 mph - N/A Rain , Snow Light Rain Showers
3:50 PM 33.8 °F 23.5 °F 32.0 °F 93% 29.71 in 6.2 mi South 16.1 mph - N/A Rain Light Rain Showers
4:50 PM 35.6 °F 24.8 °F 33.8 °F 93% 29.68 in 6.2 mi SSE 19.6 mph 31.1 mph N/A Rain , Snow Light Rain Showers
5:20 PM 35.6 °F 24.5 °F 33.8 °F 93% 29.71 in 6.2 mi SSE 20.7 mph - N/A   Mostly Cloudy
5:50 PM 35.6 °F 25.5 °F 33.8 °F 93% 29.71 in 6.2 mi South 17.3 mph - N/A   Mostly Cloudy
6:20 PM 35.6 °F 26.6 °F 33.8 °F 93% 29.68 in 6.2 mi SSW 13.8 mph - N/A Rain Light Rain
6:50 PM 35.6 °F 26.2 °F 33.8 °F 93% 29.71 in 5.6 mi South 15.0 mph - N/A Rain Light Rain
7:20 PM 33.8 °F 20.5 °F 33.8 °F 100% 29.68 in 6.2 mi SSE 27.6 mph - N/A   Mostly Cloudy
7:50 PM 33.8 °F 19.6 °F 32.0 °F 93% 29.68 in 0.6 mi South 32.2 mph - N/A Snow Snow Showers
8:20 PM 33.8 °F 20.5 °F 33.8 °F 100% 29.68 in 5.6 mi South 27.6 mph - N/A   Mostly Cloudy
8:50 PM 35.6 °F 23.0 °F 35.6 °F 100% 29.68 in 6.2 mi South 27.6 mph - N/A   Mostly Cloudy
9:20 PM 37.4 °F 23.3 °F 33.8 °F 87% 29.65 in 6.2 mi SSE 40.3 mph - N/A   Mostly Cloudy
9:50 PM 37.4 °F 23.0 °F 33.8 °F 87% 29.65 in 6.2 mi SSE 42.6 mph - N/A   Mostly Cloudy
10:50 PM 37.4 °F 22.7 °F 32.0 °F 81% 29.65 in 5.6 mi SSE 44.9 mph - N/A Rain Light Rain Showers
11:50 PM 37.4 °F 22.7 °F 32.0 °F 81% 29.65 in 6.2 mi SSE 44.9 mph - N/A Rain Light Rain Showers